CFG8AC EDDF-GCLA

Flight info

Callsign CFG8AC
Flight time N/A
Altitude 31000
Route ANEKI2L/18 ANEKI Y163 HERBI Y164 MOPAN DCT LUTIX DCT BENOT DCT NEMOS DCT NINTU DCT MEBAK/N0454F330 DCT REPSI DCT LERGA DCT MINSO DCT NARAK DCT AGN/N0437F270 DCT LATEK DCT PPN/N0455F330 DCT MIRPO DCT DGO DCT NEA L14 ADINO DCT ELVAR DCT BEXAL UN866 KUBIL/N0462F350 UN866 KONBA
Aircraft A321/M-SDE3FGHIJ1LORVWXYZ/SB1D1

Departure

Time 2026-05-08 07:33
Airport Frankfurt Main Airport (EDDF)

Arrival

Time N/A
Airport La Palma Airport (GCLA)
Time Latitude Longitude Altitude Speed Heading
2026-05-08 06:46 50.04118 8.55823 352 ft 0 kts 160°
2026-05-08 07:26 50.04096 8.55836 359 ft 3 kts 160°
2026-05-08 07:27 50.04069 8.55851 351 ft 6 kts 160°
2026-05-08 07:27 50.04029 8.55852 350 ft 6 kts 220°
2026-05-08 07:27 50.04012 8.55801 349 ft 5 kts 251°
2026-05-08 07:27 50.03995 8.55728 357 ft 12 kts 250°
2026-05-08 07:28 50.03956 8.55564 349 ft 19 kts 250°
2026-05-08 07:28 50.03906 8.55350 349 ft 23 kts 250°
2026-05-08 07:28 50.03843 8.55090 350 ft 27 kts 249°
2026-05-08 07:28 50.03779 8.54826 356 ft 26 kts 249°
2026-05-08 07:29 50.03719 8.54571 351 ft 25 kts 249°
2026-05-08 07:29 50.03659 8.54319 345 ft 24 kts 250°
2026-05-08 07:29 50.03602 8.54082 351 ft 23 kts 249°
2026-05-08 07:29 50.03549 8.53860 336 ft 22 kts 250°
2026-05-08 07:30 50.03495 8.53635 338 ft 23 kts 250°
2026-05-08 07:30 50.03440 8.53402 337 ft 23 kts 249°
2026-05-08 07:30 50.03383 8.53165 335 ft 23 kts 250°
2026-05-08 07:30 50.03328 8.52937 335 ft 22 kts 249°
2026-05-08 07:31 50.03285 8.52755 334 ft 13 kts 250°
2026-05-08 07:31 50.03261 8.52654 335 ft 8 kts 246°
2026-05-08 07:31 50.03230 8.52605 335 ft 5 kts 216°
2026-05-08 07:31 50.03202 8.52596 335 ft 3 kts 179°
2026-05-08 07:32 50.03124 8.52596 335 ft 35 kts 180°
2026-05-08 07:32 50.02626 8.52602 334 ft 105 kts 179°
2026-05-08 07:32 50.01697 8.52611 333 ft 159 kts 180°
2026-05-08 07:32 50.00461 8.52637 560 ft 183 kts 178°
2026-05-08 07:33 49.99212 8.52694 1347 ft 179 kts 176°
2026-05-08 07:33 49.97976 8.52776 1882 ft 179 kts 175°
2026-05-08 07:33 49.96674 8.52875 2026 ft 196 kts 176°
2026-05-08 07:33 49.95256 8.52979 2166 ft 212 kts 176°
2026-05-08 07:34 49.93726 8.53090 2365 ft 227 kts 176°
2026-05-08 07:34 49.92120 8.53206 2656 ft 244 kts 176°
2026-05-08 07:34 49.90404 8.53321 3209 ft 249 kts 176°
2026-05-08 07:34 49.88633 8.53443 3726 ft 259 kts 176°
2026-05-08 07:35 49.86816 8.53568 4328 ft 263 kts 177°
2026-05-08 07:35 49.84973 8.53692 4979 ft 266 kts 177°
2026-05-08 07:35 49.83116 8.53812 5598 ft 269 kts 177°
2026-05-08 07:35 49.81233 8.53937 6214 ft 272 kts 177°
2026-05-08 07:36 49.79362 8.54063 6839 ft 274 kts 177°
2026-05-08 07:36 49.77447 8.54057 7440 ft 277 kts 185°
2026-05-08 07:36 49.75520 8.53792 8035 ft 279 kts 185°
2026-05-08 07:36 49.73576 8.53529 8600 ft 282 kts 185°
2026-05-08 07:37 49.71608 8.53269 9153 ft 285 kts 185°
2026-05-08 07:37 49.69622 8.53009 9714 ft 288 kts 185°
2026-05-08 07:37 49.67622 8.52746 10278 ft 290 kts 185°
2026-05-08 07:37 49.65552 8.52472 10472 ft 308 kts 186°
2026-05-08 07:38 49.63387 8.52183 10605 ft 325 kts 186°
2026-05-08 07:38 49.59240 8.51639 10829 ft 355 kts 185°
2026-05-08 07:38 49.56728 8.51314 11046 ft 367 kts 185°
2026-05-08 07:39 49.54201 8.50986 11515 ft 371 kts 186°
2026-05-08 07:39 49.51618 8.50647 12033 ft 374 kts 186°
2026-05-08 07:39 49.49016 8.50304 12547 ft 376 kts 186°
2026-05-08 07:39 49.46395 8.49958 13047 ft 379 kts 186°
2026-05-08 07:40 49.43760 8.49608 13537 ft 381 kts 186°
2026-05-08 07:40 49.41104 8.49253 14006 ft 384 kts 186°
2026-05-08 07:40 49.38434 8.48899 14472 ft 387 kts 186°
2026-05-08 07:40 49.35746 8.48550 14929 ft 389 kts 186°
2026-05-08 07:41 49.33039 8.48201 15372 ft 391 kts 186°
2026-05-08 07:41 49.30318 8.47850 15806 ft 393 kts 186°
2026-05-08 07:41 49.27586 8.47500 16201 ft 396 kts 186°
2026-05-08 07:41 49.24870 8.47152 16604 ft 398 kts 186°
2026-05-08 07:42 49.22102 8.46796 17004 ft 400 kts 186°
2026-05-08 07:42 49.19315 8.46435 17397 ft 403 kts 187°
2026-05-08 07:42 49.16514 8.46067 17790 ft 405 kts 187°
2026-05-08 07:42 49.13697 8.45697 18178 ft 408 kts 187°
2026-05-08 07:43 49.10864 8.45326 18561 ft 409 kts 187°
2026-05-08 07:43 49.08018 8.44954 18930 ft 412 kts 186°
2026-05-08 07:43 49.05182 8.44344 19289 ft 412 kts 194°
2026-05-08 07:43 49.02421 8.43384 19639 ft 414 kts 195°
2026-05-08 07:44 48.99610 8.42400 19998 ft 416 kts 195°
2026-05-08 07:44 48.96786 8.41412 20348 ft 417 kts 194°
2026-05-08 07:44 48.93949 8.40419 20694 ft 419 kts 195°
2026-05-08 07:44 48.91098 8.39423 21048 ft 421 kts 194°
2026-05-08 07:45 48.88232 8.38427 21394 ft 423 kts 194°
2026-05-08 07:45 48.85355 8.37432 21730 ft 425 kts 194°
2026-05-08 07:45 48.82466 8.36437 22052 ft 427 kts 194°
2026-05-08 07:45 48.79564 8.35438 22376 ft 429 kts 195°
2026-05-08 07:46 48.76653 8.34423 22687 ft 430 kts 195°
2026-05-08 07:46 48.73775 8.33387 22993 ft 432 kts 195°
2026-05-08 07:46 48.70849 8.32313 23283 ft 434 kts 195°
2026-05-08 07:46 48.67913 8.31225 23572 ft 435 kts 195°
2026-05-08 07:47 48.64965 8.30136 23876 ft 437 kts 195°
2026-05-08 07:47 48.62006 8.29049 24166 ft 439 kts 195°
2026-05-08 07:47 48.59036 8.27967 24456 ft 440 kts 195°
2026-05-08 07:47 48.56056 8.26887 24734 ft 441 kts 195°
2026-05-08 07:48 48.53107 8.25823 24995 ft 442 kts 195°
2026-05-08 07:48 48.50110 8.24740 25265 ft 443 kts 195°
2026-05-08 07:48 48.47109 8.23648 25536 ft 444 kts 195°
2026-05-08 07:48 48.44101 8.22550 25806 ft 445 kts 195°
2026-05-08 07:49 48.41088 8.21444 26045 ft 446 kts 196°
2026-05-08 07:49 48.38066 8.20337 26312 ft 448 kts 195°
2026-05-08 07:49 48.35033 8.19228 26562 ft 449 kts 196°
2026-05-08 07:49 48.32001 8.18125 26862 ft 448 kts 195°
2026-05-08 07:50 48.29021 8.17043 27212 ft 446 kts 196°
2026-05-08 07:50 48.26015 8.15927 27572 ft 444 kts 198°
2026-05-08 07:50 48.23133 8.14340 27917 ft 439 kts 207°
2026-05-08 07:50 48.20397 8.12322 28224 ft 437 kts 208°
2026-05-08 07:51 48.17674 8.10295 28556 ft 436 kts 208°
2026-05-08 07:51 48.14962 8.08283 28878 ft 434 kts 208°
2026-05-08 07:51 48.12253 8.06281 29182 ft 434 kts 208°
2026-05-08 07:51 48.09552 8.04291 29517 ft 432 kts 208°
2026-05-08 07:52 48.06897 8.02339 29818 ft 430 kts 208°
2026-05-08 07:52 48.04216 8.00367 30134 ft 429 kts 208°
2026-05-08 07:52 48.01543 7.98405 30422 ft 428 kts 208°
2026-05-08 07:52 47.98874 7.96445 30672 ft 427 kts 208°
2026-05-08 07:53 47.96210 7.94490 30913 ft 427 kts 208°
2026-05-08 07:53 47.93544 7.92540 31068 ft 427 kts 208°
2026-05-08 07:53 47.90876 7.90595 31102 ft 427 kts 208°
2026-05-08 07:54 47.85588 7.86739 31093 ft 426 kts 208°
2026-05-08 07:54 47.80271 7.82860 31091 ft 426 kts 207°
2026-05-08 07:55 47.74948 7.78990 31089 ft 426 kts 208°
2026-05-08 07:55 47.69631 7.75130 31088 ft 425 kts 208°
2026-05-08 07:56 47.64359 7.71315 31091 ft 424 kts 207°
2026-05-08 07:56 47.59054 7.67485 31086 ft 424 kts 207°
2026-05-08 07:57 47.53752 7.63668 31086 ft 424 kts 207°
2026-05-08 07:57 47.48450 7.59857 31087 ft 423 kts 207°
2026-05-08 07:58 47.43192 7.56075 31080 ft 423 kts 207°
2026-05-08 07:58 47.37906 7.52280 31083 ft 422 kts 207°
2026-05-08 07:59 47.32623 7.48516 31080 ft 421 kts 207°
2026-05-08 07:59 47.27382 7.44792 31084 ft 421 kts 207°
2026-05-08 08:00 47.22121 7.41046 31083 ft 420 kts 207°
2026-05-08 08:00 47.17060 7.36855 31088 ft 416 kts 219°
2026-05-08 08:01 47.13086 7.30729 31087 ft 415 kts 231°
2026-05-08 08:01 47.09527 7.24147 31087 ft 414 kts 231°
2026-05-08 08:02 47.05927 7.17543 31089 ft 414 kts 231°
2026-05-08 08:02 47.02321 7.10963 31087 ft 413 kts 231°
2026-05-08 08:03 46.98726 7.04397 31074 ft 413 kts 231°
2026-05-08 08:03 46.95158 6.97887 31067 ft 413 kts 231°
2026-05-08 08:04 46.91561 6.91334 31077 ft 413 kts 231°
2026-05-08 08:04 46.87964 6.84800 31075 ft 412 kts 231°
2026-05-08 08:05 46.84365 6.78278 31078 ft 412 kts 231°
2026-05-08 08:05 46.80783 6.71824 31083 ft 412 kts 230°
2026-05-08 08:06 46.77176 6.65346 31083 ft 411 kts 231°
2026-05-08 08:06 46.73577 6.58881 31087 ft 410 kts 231°
2026-05-08 08:07 46.70003 6.52475 31084 ft 409 kts 230°
2026-05-08 08:07 46.66404 6.46055 31089 ft 409 kts 230°
2026-05-08 08:08 46.62809 6.39646 31089 ft 408 kts 230°
2026-05-08 08:08 46.59220 6.33257 31088 ft 407 kts 230°
2026-05-08 08:09 46.55659 6.26937 31093 ft 406 kts 230°
2026-05-08 08:09 46.52080 6.20598 31093 ft 404 kts 230°
2026-05-08 08:10 46.48515 6.14287 31089 ft 403 kts 230°
2026-05-08 08:10 46.44948 6.08003 31098 ft 404 kts 230°
2026-05-08 08:11 46.41406 6.01778 31089 ft 402 kts 230°
2026-05-08 08:11 46.37828 5.95513 31092 ft 403 kts 230°
2026-05-08 08:12 46.34265 5.89260 31090 ft 402 kts 230°
2026-05-08 08:12 46.30693 5.83027 31093 ft 402 kts 230°
2026-05-08 08:13 46.27150 5.76846 31085 ft 401 kts 230°
2026-05-08 08:13 46.23581 5.70643 31087 ft 402 kts 230°
2026-05-08 08:14 46.19998 5.64440 31085 ft 402 kts 230°
2026-05-08 08:14 46.16441 5.58290 31083 ft 402 kts 230°
2026-05-08 08:15 46.13070 5.51865 31067 ft 402 kts 234°
2026-05-08 08:15 46.09890 5.45223 31049 ft 403 kts 234°
2026-05-08 08:16 46.06704 5.38584 31043 ft 403 kts 234°
2026-05-08 08:16 46.03507 5.31948 31040 ft 404 kts 234°
2026-05-08 08:17 46.00322 5.25341 31039 ft 405 kts 234°
2026-05-08 08:17 45.97106 5.18678 31042 ft 406 kts 234°
2026-05-08 08:18 45.93882 5.12019 31044 ft 406 kts 234°
2026-05-08 08:18 45.90640 5.05361 31034 ft 407 kts 234°
2026-05-08 08:19 45.87412 4.98748 31031 ft 408 kts 234°
2026-05-08 08:19 45.84158 4.92083 31028 ft 409 kts 234°
2026-05-08 08:20 45.80886 4.85403 31028 ft 409 kts 234°
2026-05-08 08:20 45.77627 4.78775 31026 ft 410 kts 234°
2026-05-08 08:21 45.74351 4.72095 31025 ft 410 kts 234°
2026-05-08 08:21 45.71057 4.65410 31023 ft 411 kts 234°
2026-05-08 08:22 45.67755 4.58712 31029 ft 412 kts 234°
2026-05-08 08:22 45.64456 4.52056 31029 ft 413 kts 234°
2026-05-08 08:23 45.61127 4.45361 31031 ft 413 kts 234°
2026-05-08 08:23 45.57799 4.38662 31030 ft 414 kts 234°
2026-05-08 08:24 45.54461 4.31956 31032 ft 415 kts 234°
2026-05-08 08:24 45.51131 4.25306 31039 ft 415 kts 234°
2026-05-08 08:25 45.47774 4.18610 31039 ft 414 kts 234°
2026-05-08 08:25 45.44422 4.11929 31039 ft 415 kts 234°
2026-05-08 08:26 45.41082 4.05306 31038 ft 415 kts 234°
2026-05-08 08:26 45.37714 3.98637 31038 ft 415 kts 234°
2026-05-08 08:27 45.34339 3.91964 31035 ft 416 kts 234°
2026-05-08 08:27 45.30957 3.85287 31030 ft 417 kts 234°
2026-05-08 08:28 45.27581 3.78651 31030 ft 417 kts 234°
2026-05-08 08:28 45.24188 3.71962 31033 ft 417 kts 235°
2026-05-08 08:29 45.20856 3.65208 31033 ft 418 kts 236°
2026-05-08 08:29 45.17549 3.58429 31031 ft 418 kts 236°
2026-05-08 08:30 45.14247 3.51712 31037 ft 419 kts 235°
2026-05-08 08:30 45.09227 3.41593 31041 ft 419 kts 235°
2026-05-08 08:31 45.05862 3.34849 31041 ft 419 kts 235°
2026-05-08 08:31 45.02522 3.28159 31037 ft 419 kts 235°
2026-05-08 08:32 44.99157 3.21422 31033 ft 420 kts 235°
2026-05-08 08:32 44.95789 3.14680 31033 ft 420 kts 235°
2026-05-08 08:33 44.92434 3.07982 31033 ft 421 kts 235°
2026-05-08 08:33 44.89050 3.01254 31031 ft 420 kts 235°
2026-05-08 08:34 44.85652 2.94544 31025 ft 421 kts 236°
2026-05-08 08:34 44.82336 2.87750 31022 ft 421 kts 238°
2026-05-08 08:35 44.79189 2.80805 31023 ft 421 kts 238°
2026-05-08 08:35 44.76070 2.73894 31021 ft 421 kts 238°
2026-05-08 08:36 44.72888 2.66967 31021 ft 422 kts 238°
2026-05-08 08:36 44.69683 2.60064 31020 ft 422 kts 238°
2026-05-08 08:37 44.66490 2.53209 31015 ft 422 kts 238°
2026-05-08 08:37 44.63267 2.46307 31014 ft 422 kts 239°
2026-05-08 08:38 44.60038 2.39402 31019 ft 424 kts 239°
2026-05-08 08:38 44.56804 2.32497 31022 ft 423 kts 239°
2026-05-08 08:39 44.53561 2.25601 31023 ft 424 kts 239°
2026-05-08 08:39 44.50336 2.18751 31021 ft 424 kts 239°
2026-05-08 08:40 44.47090 2.11863 31018 ft 423 kts 239°
2026-05-08 08:40 44.43838 2.04986 31016 ft 424 kts 239°
2026-05-08 08:41 44.40605 1.98160 31014 ft 424 kts 239°
2026-05-08 08:41 44.37346 1.91289 31011 ft 424 kts 240°
2026-05-08 08:42 44.34080 1.84419 31006 ft 425 kts 240°
2026-05-08 08:42 44.30802 1.77552 31005 ft 425 kts 239°
2026-05-08 08:43 44.27562 1.70712 31001 ft 425 kts 240°
2026-05-08 08:43 44.24384 1.63773 30996 ft 424 kts 241°
2026-05-08 08:44 44.21217 1.56831 30989 ft 424 kts 241°
2026-05-08 08:44 44.18035 1.49901 30987 ft 425 kts 240°
2026-05-08 08:45 44.14856 1.43033 30986 ft 425 kts 240°
2026-05-08 08:45 44.11650 1.36126 30984 ft 425 kts 241°
2026-05-08 08:46 44.08445 1.29218 30978 ft 425 kts 241°
2026-05-08 08:46 44.05236 1.22327 30971 ft 424 kts 241°
2026-05-08 08:47 44.02050 1.15485 30971 ft 425 kts 241°
2026-05-08 08:47 43.98837 1.08609 30967 ft 424 kts 241°
2026-05-08 08:48 43.95619 1.01759 30980 ft 423 kts 241°
2026-05-08 08:48 43.92426 0.94982 30977 ft 422 kts 241°
2026-05-08 08:49 43.89210 0.88171 30977 ft 423 kts 239°
2026-05-08 08:49 43.85362 0.81927 30968 ft 427 kts 233°
2026-05-08 08:50 43.81390 0.75806 30965 ft 427 kts 233°
2026-05-08 08:50 43.77449 0.69732 30959 ft 427 kts 233°
2026-05-08 08:51 43.73487 0.63631 30957 ft 426 kts 234°
2026-05-08 08:51 43.69519 0.57535 30952 ft 427 kts 234°
2026-05-08 08:52 43.65543 0.51434 30951 ft 427 kts 234°
2026-05-08 08:52 43.61583 0.45378 30954 ft 428 kts 234°
2026-05-08 08:53 43.57588 0.39275 30955 ft 429 kts 234°
2026-05-08 08:53 43.53585 0.33168 30959 ft 429 kts 233°
2026-05-08 08:54 43.49578 0.27076 30960 ft 429 kts 234°
2026-05-08 08:54 43.45599 0.21043 30956 ft 429 kts 234°
2026-05-08 08:55 43.41590 0.14968 30956 ft 429 kts 234°
2026-05-08 08:55 43.37579 0.08905 30957 ft 428 kts 233°
2026-05-08 08:56 43.33567 0.02858 30955 ft 429 kts 233°
2026-05-08 08:56 43.29577 -0.03139 30954 ft 428 kts 232°
2026-05-08 08:57 43.25557 -0.09172 30954 ft 428 kts 230°
2026-05-08 08:57 43.21550 -0.15184 30970 ft 426 kts 230°
2026-05-08 08:58 43.17580 -0.21120 30974 ft 424 kts 229°
2026-05-08 08:58 43.13593 -0.27067 30969 ft 423 kts 229°
2026-05-08 08:59 43.09610 -0.32989 30965 ft 422 kts 229°
2026-05-08 08:59 43.05632 -0.38904 30960 ft 422 kts 229°
2026-05-08 09:00 43.01649 -0.44806 30957 ft 422 kts 229°
2026-05-08 09:00 42.97692 -0.50659 30960 ft 422 kts 229°
2026-05-08 09:01 42.93705 -0.56547 30951 ft 422 kts 228°
2026-05-08 09:01 42.89786 -0.62521 30935 ft 424 kts 233°
2026-05-08 09:02 42.87121 -0.69616 30946 ft 428 kts 251°
2026-05-08 09:02 42.85945 -0.77593 30950 ft 431 kts 257°
2026-05-08 09:03 42.84889 -0.85630 30952 ft 431 kts 257°
2026-05-08 09:03 42.83820 -0.93660 30952 ft 431 kts 257°
2026-05-08 09:04 42.82752 -1.01645 30957 ft 431 kts 257°
2026-05-08 09:04 42.81677 -1.09678 30958 ft 431 kts 257°
2026-05-08 09:05 42.80607 -1.17647 30926 ft 417 kts 257°
2026-05-08 09:05 42.80094 -1.21477 30801 ft 407 kts 257°
2026-05-08 09:05 42.79574 -1.25294 30744 ft 413 kts 257°
2026-05-08 09:06 42.79051 -1.29104 30863 ft 416 kts 257°
2026-05-08 09:06 42.78518 -1.32989 31016 ft 419 kts 257°
2026-05-08 09:06 42.77982 -1.36905 31140 ft 422 kts 257°
2026-05-08 09:06 42.77441 -1.40855 31268 ft 427 kts 257°
2026-05-08 09:07 42.76895 -1.44838 31398 ft 429 kts 256°
2026-05-08 09:07 42.76342 -1.48844 31523 ft 432 kts 256°
2026-05-08 09:07 42.75780 -1.52879 31646 ft 435 kts 256°
2026-05-08 09:07 42.75218 -1.56926 31811 ft 436 kts 257°
2026-05-08 09:08 42.74660 -1.60927 31952 ft 435 kts 256°
2026-05-08 09:08 42.74097 -1.64975 32110 ft 435 kts 256°
2026-05-08 09:08 42.73538 -1.69012 32243 ft 434 kts 255°
2026-05-08 09:08 42.72768 -1.72956 32249 ft 430 kts 250°
2026-05-08 09:09 42.71015 -1.80733 32244 ft 429 kts 250°
2026-05-08 09:09 42.69260 -1.88498 32241 ft 430 kts 250°
2026-05-08 09:10 42.68394 -1.92321 32494 ft 427 kts 250°
2026-05-08 09:10 42.67521 -1.96167 32833 ft 425 kts 250°
2026-05-08 09:10 42.66649 -2.00010 32949 ft 426 kts 250°
2026-05-08 09:10 42.65774 -2.03861 32976 ft 427 kts 250°
2026-05-08 09:11 42.64014 -2.11572 32978 ft 427 kts 250°
2026-05-08 09:11 42.62238 -2.19258 32983 ft 426 kts 249°
2026-05-08 09:12 42.60405 -2.26835 32980 ft 425 kts 249°
2026-05-08 09:12 42.58530 -2.34455 32970 ft 426 kts 248°
2026-05-08 09:13 42.56666 -2.42073 32978 ft 426 kts 249°
2026-05-08 09:13 42.54800 -2.49692 32973 ft 426 kts 248°
2026-05-08 09:14 42.52936 -2.57316 32966 ft 426 kts 248°
2026-05-08 09:14 42.51076 -2.64883 32972 ft 426 kts 248°
2026-05-08 09:15 42.49193 -2.72501 32966 ft 426 kts 248°
2026-05-08 09:15 42.47311 -2.80122 32961 ft 426 kts 248°
2026-05-08 09:16 42.45421 -2.87667 32948 ft 426 kts 245°
2026-05-08 09:16 42.42996 -2.94941 32941 ft 424 kts 242°
2026-05-08 09:17 42.40527 -3.02191 32928 ft 424 kts 242°
2026-05-08 09:17 42.38046 -3.09444 32925 ft 426 kts 242°